GW5817 Weather Reports


time (UTC)temp
C
wind
direction
speed
KPH
gust
KPH
rain 1hr
cm
rain 24hr
cm
rain mn
cm
humidity
%
barometer
mb
20260507230535 25 357 0.0 8.0 0.00 0.00 0.00 27 1011.9
20260507230032 26 326 8.0 9.7 0.00 0.00 0.00 25 1011.7
20260507225527 27 310 4.8 4.8 0.00 0.00 0.00 27 1011.8
20260507225023 27 275 3.2 4.8 0.00 0.00 0.00 26 1011.9
20260507224519 26 239 1.6 8.0 0.00 0.00 0.00 31 1011.9
20260507224016 27 349 1.6 4.8 0.00 0.00 0.00 30 1012.0
20260507223512 26 238 4.8 8.0 0.00 0.00 0.00 24 1012.4
20260507223010 26 228 1.6 4.8 0.00 0.00 0.00 29 1012.2
20260507222507 26 263 1.6 4.8 0.00 0.00 0.00 26 1012.1
20260507222002 25 314 6.4 8.0 0.00 0.00 0.00 29 1012.3
20260507221459 26 176 3.2 8.0 0.00 0.00 0.00 30 1012.4
20260507220956 26 320 1.6 8.0 0.00 0.00 0.00 30 1012.4
20260507220454 26 180 1.6 6.4 0.00 0.00 0.00 29 1012.4
20260507215950 26 300 3.2 8.0 0.00 0.00 0.00 30 1012.6
20260507215447 26 260 3.2 8.0 0.00 0.00 0.00 26 1012.3
20260507214944 26 219 3.2 9.7 0.00 0.00 0.00 27 1012.7
20260507214442 26 248 0.0 6.4 0.00 0.00 0.00 26 1012.7
20260507213937 25 201 3.2 11.3 0.00 0.00 0.00 26 1012.7
20260507213434 26 237 4.8 6.4 0.00 0.00 0.00 24 1012.9
20260507212931 26 231 4.8 9.7 0.00 0.00 0.00 24 1012.8
20260507212426 26 161 1.6 8.0 0.00 0.00 0.00 26 1013.0
20260507211924 25 252 4.8 8.0 0.00 0.00 0.00 27 1013.3
20260507211420 25 246 4.8 12.9 0.00 0.00 0.00 27 1012.9
20260507210917 25 272 4.8 9.7 0.00 0.00 0.00 27 1013.0
20260507210414 25 252 4.8 8.0 0.00 0.00 0.00 29 1013.1
20260507205910 25 357 0.0 6.4 0.00 0.00 0.00 34 1013.1
20260507205408 25 207 3.2 9.7 0.00 0.00 0.00 29 1013.4
20260507204904 25 253 0.0 8.0 0.00 0.00 0.00 31 1013.3
20260507204400 25 230 3.2 8.0 0.00 0.00 0.00 30 1013.3
20260507203858 25 256 3.2 8.0 0.00 0.00 0.00 30 1013.4
20260507203356 24 210 3.2 9.7 0.00 0.00 0.00 30 1013.3
20260507202852 24 283 1.6 12.9 0.00 0.00 0.00 31 1013.5
20260507202349 24 220 4.8 11.3 0.00 0.00 0.00 31 1013.6
20260507201844 24 219 3.2 8.0 0.00 0.00 0.00 31 1013.5
20260507201340 24 285 3.2 11.3 0.00 0.00 0.00 33 1014.0
20260507200836 24 250 1.6 8.0 0.00 0.00 0.00 35 1013.8
20260507200332 24 89 0.0 8.0 0.00 0.00 0.00 33 1013.6
20260507195829 23 223 3.2 11.3 0.00 0.00 0.00 32 1013.8
20260507195326 23 158 8.0 16.1 0.00 0.00 0.00 35 1013.8
20260507194823 23 185 3.2 11.3 0.00 0.00 0.00 35 1014.1
20260507194319 23 153 4.8 24.1 0.00 0.00 0.00 37 1013.8
20260507193816 23 161 6.4 11.3 0.00 0.00 0.00 35 1014.2
20260507193314 23 148 3.2 9.7 0.00 0.00 0.00 34 1014.0
20260507192808 23 203 4.8 11.3 0.00 0.00 0.00 34 1014.0
20260507192306 23 193 4.8 11.3 0.00 0.00 0.00 33 1014.1
20260507191802 23 175 1.6 14.5 0.00 0.00 0.00 36 1014.0
20260507191258 23 182 6.4 8.0 0.00 0.00 0.00 35 1014.2
20260507190755 23 209 3.2 9.7 0.00 0.00 0.00 35 1014.1
20260507190254 23 220 6.4 14.5 0.00 0.00 0.00 35 1014.1
20260507185752 23 197 6.4 11.3 0.00 0.00 0.00 35 1014.1
20260507185249 23 199 6.4 8.0 0.00 0.00 0.00 36 1014.3
20260507184746 22 215 4.8 12.9 0.00 0.00 0.00 35 1014.5
20260507184244 23 242 3.2 25.7 0.00 0.00 0.00 36 1014.4
20260507183741 23 189 4.8 12.9 0.00 0.00 0.00 36 1014.2
20260507183237 22 201 1.6 6.4 0.00 0.00 0.00 37 1014.3
20260507182735 22 197 6.4 11.3 0.00 0.00 0.00 37 1014.6
20260507182230 22 236 4.8 8.0 0.00 0.00 0.00 39 1014.4
20260507181727 22 247 3.2 9.7 0.00 0.00 0.00 39 1014.2
20260507181223 22 208 6.4 11.3 0.00 0.00 0.00 38 1014.7
20260507180720 22 226 3.2 9.7 0.00 0.00 0.00 40 1014.5
20260507180217 21 272 3.2 14.5 0.00 0.00 0.00 39 1014.7
20260507175712 21 209 6.4 8.0 0.00 0.00 0.00 40 1014.7
20260507175210 21 290 3.2 11.3 0.00 0.00 0.00 41 1014.8
20260507174707 21 212 4.8 8.0 0.00 0.00 0.00 38 1014.6
20260507174205 21 225 1.6 8.0 0.00 0.00 0.00 42 1014.9
20260507173702 21 34 1.6 6.4 0.00 0.00 0.00 41 1014.9
20260507173159 21 296 0.0 4.8 0.00 0.00 0.00 45 1014.9
20260507172656 21 244 6.4 9.7 0.00 0.00 0.00 42 1014.8
20260507172153 20 254 0.0 12.9 0.00 0.00 0.00 42 1014.9
20260507171652 20 209 3.2 12.9 0.00 0.00 0.00 44 1014.9
20260507171150 20 174 8.0 9.7 0.00 0.00 0.00 44 1015.1
20260507170647 20 216 1.6 8.0 0.00 0.00 0.00 46 1015.1
20260507170144 20 248 3.2 9.7 0.00 0.00 0.00 43 1015.1
20260507165639 20 189 1.6 11.3 0.00 0.00 0.00 47 1015.0
20260507165136 20 243 4.8 9.7 0.00 0.00 0.00 45 1014.9
20260507164632 20 250 1.6 9.7 0.00 0.00 0.00 46 1015.3
20260507164129 19 237 4.8 11.3 0.00 0.00 0.00 45 1015.0
20260507163626 19 210 8.0 11.3 0.00 0.00 0.00 49 1015.0
20260507163124 19 272 3.2 11.3 0.00 0.00 0.00 51 1014.8
20260507162620 19 197 3.2 8.0 0.00 0.00 0.00 53 1015.1
20260507162116 19 282 1.6 8.0 0.00 0.00 0.00 51 1015.2
20260507161613 19 183 4.8 6.4 0.00 0.00 0.00 51 1015.1
20260507161109 18 244 3.2 9.7 0.00 0.00 0.00 52 1014.8
20260507160605 18 10 3.2 11.3 0.00 0.00 0.00 54 1015.0
20260507155557 17 89 0.0 14.5 0.00 0.00 0.00 58 1015.2
20260507155055 18 69 3.2 8.0 0.00 0.00 0.00 56 1015.1
20260507154551 17 58 3.2 8.0 0.00 0.00 0.00 60 1015.3
20260507154048 17 33 3.2 4.8 0.00 0.00 0.00 57 1015.3
20260507153545 17 96 1.6 6.4 0.00 0.00 0.00 58 1015.2
20260507153041 17 291 3.2 9.7 0.00 0.00 0.00 59 1015.5
20260507152537 17 142 0.0 4.8 0.00 0.00 0.00 59 1015.0
20260507152034 17 199 6.4 8.0 0.00 0.00 0.00 57 1015.2
20260507151530 16 194 3.2 11.3 0.00 0.00 0.00 59 1015.0
20260507151027 16 92 6.4 9.7 0.00 0.00 0.00 62 1015.1
20260507150524 15 20 1.6 8.0 0.00 0.00 0.00 62 1015.1
20260507150021 15 33 6.4 12.9 0.00 0.00 0.00 66 1015.0
20260507145516 16 354 6.4 8.0 0.00 0.00 0.00 62 1014.9
20260507145014 15 98 3.2 16.1 0.00 0.00 0.00 63 1014.8
20260507144510 15 260 4.8 12.9 0.00 0.00 0.00 63 1014.8
20260507144008 15 31 3.2 4.8 0.00 0.00 0.00 62 1014.8
20260507143505 15 345 1.6 4.8 0.00 0.00 0.00 62 1014.8
20260507143002 16 218 0.0 6.4 0.00 0.00 0.00 60 1015.2
20260507142457 16 95 1.6 4.8 0.00 0.00 0.00 60 1014.8
20260507141954 16 292 3.2 8.0 0.00 0.00 0.00 60 1014.8
20260507141450 16 33 1.6 4.8 0.00 0.00 0.00 60 1014.6
20260507140947 15 306 1.6 8.0 0.00 0.00 0.00 61 1014.6
20260507140444 15 274 1.6 4.8 0.00 0.00 0.00 64 1014.3
20260507135942 15 315 3.2 14.5 0.00 0.00 0.00 63 1014.5
20260507135438 15 180 4.8 8.0 0.00 0.00 0.00 63 1014.5
20260507134935 15 329 0.0 20.9 0.00 0.00 0.00 63 1014.0
20260507134432 15 195 3.2 9.7 0.00 0.00 0.00 65 1014.3
20260507133928 14 157 3.2 11.3 0.00 0.00 0.00 68 1014.4
20260507133424 13 108 0.0 22.5 0.00 0.00 0.00 71 1014.1
20260507132923 14 111 0.0 14.5 0.00 0.00 0.00 69 1014.1
20260507132418 15 155 4.8 14.5 0.00 0.00 0.00 68 1014.0
20260507131915 15 166 3.2 4.8 0.00 0.00 0.00 67 1014.1
20260507131412 15 105 1.6 4.8 0.00 0.00 0.00 68 1014.0
20260507130909 15 88 3.2 4.8 0.00 0.00 0.00 68 1014.3
20260507130406 14 179 1.6 8.0 0.00 0.00 0.00 69 1014.1
20260507125905 14 219 1.6 4.8 0.00 0.00 0.00 70 1014.0
20260507125402 14 234 0.0 6.4 0.00 0.00 0.00 70 1013.7
20260507124900 14 229 3.2 6.4 0.00 0.00 0.00 69 1014.0
20260507124355 14 240 3.2 11.3 0.00 0.00 0.00 69 1014.0
20260507123854 13 43 1.6 8.0 0.00 0.00 0.00 70 1013.7
20260507123351 13 69 3.2 6.4 0.00 0.00 0.00 70 1013.7
20260507122847 13 114 1.6 6.4 0.00 0.00 0.00 70 1013.6
20260507122342 13 187 0.0 8.0 0.00 0.00 0.00 71 1013.4
20260507121839 13 157 0.0 6.4 0.00 0.00 0.00 72 1013.7
20260507121335 13 300 1.6 4.8 0.00 0.00 0.00 72 1013.8
20260507120832 13 183 1.6 4.8 0.00 0.00 0.00 73 1013.5
20260507120328 13 195 4.8 6.4 0.00 0.00 0.00 73 1013.5
20260507115824 13 137 0.0 8.0 0.00 0.00 0.00 72 1013.7
20260507115320 13 197 3.2 8.0 0.00 0.00 0.00 73 1013.7
20260507114816 13 125 3.2 8.0 0.00 0.00 0.00 73 1013.8
20260507114313 13 89 0.0 4.8 0.00 0.00 0.00 73 1013.8
20260507113811 13 226 3.2 4.8 0.00 0.00 0.00 72 1013.8
20260507113307 13 209 3.2 8.0 0.00 0.00 0.00 71 1013.8
20260507112805 13 249 8.0 11.3 0.00 0.00 0.00 71 1014.1
20260507112306 13 226 0.0 6.4 0.00 0.00 0.00 71 1014.0
20260507111800 13 60 1.6 4.8 0.00 0.00 0.00 72 1014.0
20260507111256 13 8 3.2 4.8 0.00 0.00 0.00 71 1014.1
20260507110752 13 339 0.0 3.2 0.00 0.00 0.00 71 1014.1
20260507110249 14 97 3.2 3.2 0.00 0.00 0.00 69 1014.0
20260507105746 14 164 1.6 6.4 0.00 0.00 0.00 68 1013.6
20260507105241 15 272 0.0 8.0 0.00 0.00 0.00 67 1013.7
20260507104739 15 220 4.8 12.9 0.00 0.00 0.00 66 1013.7
20260507104236 15 31 1.6 8.0 0.00 0.00 0.00 67 1013.6
20260507103731 15 269 6.4 14.5 0.00 0.00 0.00 66 1013.7
20260507103228 14 230 6.4 8.0 0.00 0.00 0.00 67 1013.7
20260507102725 14 221 4.8 6.4 0.00 0.00 0.00 68 1013.8
20260507102221 14 218 0.0 6.4 0.00 0.00 0.00 67 1014.1
20260507101717 15 175 0.0 12.9 0.00 0.00 0.00 66 1014.2
20260507101212 14 236 3.2 6.4 0.00 0.00 0.00 68 1014.1
20260507100710 15 228 3.2 8.0 0.00 0.00 0.00 67 1014.2
20260507100208 15 26 8.0 12.9 0.00 0.00 0.00 67 1014.1
20260507095706 15 311 3.2 4.8 0.00 0.00 0.00 67 1014.1
20260507095202 15 238 4.8 6.4 0.00 0.00 0.00 67 1013.8
20260507094659 15 254 3.2 12.9 0.00 0.00 0.00 65 1013.8
20260507094156 15 207 3.2 6.4 0.00 0.00 0.00 66 1014.0
20260507093653 15 239 4.8 11.3 0.00 0.00 0.00 67 1013.8
20260507093152 14 34 0.0 6.4 0.00 0.00 0.00 68 1014.0
20260507092649 15 142 0.0 6.4 0.00 0.00 0.00 66 1013.6
20260507092145 15 37 0.0 4.8 0.00 0.00 0.00 65 1014.0
20260507091641 15 84 0.0 4.8 0.00 0.00 0.00 65 1013.7
20260507091137 15 53 0.0 6.4 0.00 0.00 0.00 65 1013.8
20260507090633 15 282 4.8 11.3 0.00 0.00 0.00 62 1013.8
20260507090131 15 91 4.8 8.0 0.00 0.00 0.00 61 1013.7
20260507085627 15 110 4.8 6.4 0.00 0.00 0.00 60 1013.7
20260507085124 15 98 0.0 8.0 0.00 0.00 0.00 59 1013.6
20260507084621 15 29 4.8 9.7 0.00 0.00 0.00 58 1013.5
20260507084118 15 144 9.7 9.7 0.00 0.00 0.00 60 1013.6
20260507083614 15 99 9.7 17.7 0.00 0.00 0.00 60 1013.4
20260507083112 15 62 3.2 8.0 0.00 0.00 0.00 60 1013.5
20260507082607 15 85 6.4 14.5 0.00 0.00 0.00 60 1013.6
20260507082104 16 351 17.7 27.4 0.00 0.00 0.00 58 1013.3
20260507081600 16 321 16.1 17.7 0.00 0.00 0.00 58 1013.1
20260507081057 16 6 3.2 6.4 0.00 0.00 0.00 58 1013.1
20260507080553 15 329 8.0 16.1 0.00 0.00 0.00 58 1013.0
20260507080050 15 294 6.4 9.7 0.00 0.00 0.00 61 1013.0
20260507075545 16 109 1.6 6.4 0.00 0.00 0.00 60 1013.1
20260507075041 16 51 1.6 11.3 0.00 0.00 0.00 57 1012.9
20260507074538 16 86 8.0 9.7 0.00 0.00 0.00 57 1012.9
20260507074037 16 48 3.2 11.3 0.00 0.00 0.00 58 1013.2
20260507073533 16 33 4.8 6.4 0.00 0.00 0.00 57 1012.8
20260507073029 17 302 0.0 9.7 0.00 0.00 0.00 54 1012.8
20260507072527 17 185 6.4 24.1 0.00 0.00 0.00 53 1012.7
20260507072024 17 222 3.2 16.1 0.00 0.00 0.00 53 1012.7
20260507071521 17 202 11.3 14.5 0.00 0.00 0.00 53 1012.4
20260507071017 17 207 11.3 14.5 0.00 0.00 0.00 52 1012.5
20260507070515 17 204 8.0 19.3 0.00 0.00 0.00 52 1012.5
20260507070013 17 208 8.0 14.5 0.00 0.00 0.00 51 1012.5
20260507065508 17 234 3.2 16.1 0.00 0.00 0.00 51 1012.5
20260507065005 17 199 8.0 11.3 0.00 0.00 0.00 52 1012.8
20260507064503 17 170 3.2 11.3 0.00 0.00 0.00 52 1012.7
20260507064001 17 158 6.4 16.1 0.00 0.00 0.00 52 1012.7
20260507063458 17 180 6.4 11.3 0.00 0.00 0.00 52 1012.7
20260507062955 17 213 3.2 14.5 0.00 0.00 0.00 52 1012.5
20260507062452 17 173 4.8 11.3 0.00 0.00 0.00 52 1012.7
20260507061949 17 121 4.8 14.5 0.00 0.00 0.00 52 1012.6
20260507061447 17 225 3.2 8.0 0.00 0.00 0.00 51 1012.5
20260507060945 18 141 1.6 8.0 0.00 0.00 0.00 50 1012.6
20260507060442 18 201 4.8 11.3 0.00 0.00 0.00 49 1012.5
20260507055938 18 204 4.8 19.3 0.00 0.00 0.00 50 1012.3
20260507055434 18 214 6.4 12.9 0.00 0.00 0.00 49 1012.5
20260507054931 18 191 4.8 12.9 0.00 0.00 0.00 48 1012.3
20260507054427 18 208 4.8 17.7 0.00 0.00 0.00 48 1012.3
20260507053925 18 228 4.8 11.3 0.00 0.00 0.00 48 1012.4
20260507053422 18 247 4.8 12.9 0.00 0.00 0.00 48 1012.4
20260507052921 18 224 3.2 9.7 0.00 0.00 0.00 48 1012.4
20260507052418 18 257 8.0 11.3 0.00 0.00 0.00 48 1012.3
20260507051914 18 223 6.4 9.7 0.00 0.00 0.00 48 1012.5
20260507051412 18 210 6.4 14.5 0.00 0.00 0.00 48 1012.3
20260507050909 19 190 3.2 14.5 0.00 0.00 0.00 47 1012.1
20260507050405 19 222 6.4 12.9 0.00 0.00 0.00 47 1012.4
20260507045902 19 229 8.0 14.5 0.00 0.00 0.00 47 1012.3
20260507045359 20 251 4.8 11.3 0.00 0.00 0.00 46 1012.4
20260507044856 20 223 6.4 11.3 0.00 0.00 0.00 46 1012.5
20260507044353 20 212 8.0 16.1 0.00 0.00 0.00 46 1012.4
20260507043848 20 209 3.2 12.9 0.00 0.00 0.00 46 1012.4
20260507043345 20 186 4.8 14.5 0.00 0.00 0.00 46 1012.2
20260507042842 20 334 0.0 11.3 0.00 0.00 0.00 46 1012.5
20260507042337 20 190 3.2 11.3 0.00 0.00 0.00 46 1012.5
20260507041834 20 156 4.8 11.3 0.00 0.00 0.00 46 1012.3
20260507041331 20 204 8.0 11.3 0.00 0.00 0.00 46 1012.3
20260507040828 20 198 9.7 12.9 0.00 0.00 0.00 46 1012.3
20260507040324 21 253 4.8 19.3 0.00 0.00 0.00 46 1012.1
20260507035820 21 196 6.4 14.5 0.00 0.00 0.00 46 1011.9
20260507035315 21 217 8.0 12.9 0.00 0.00 0.00 46 1011.9
20260507034814 20 218 6.4 11.3 0.00 0.00 0.00 46 1011.8
20260507034310 21 222 6.4 9.7 0.00 0.00 0.00 47 1011.5
20260507033808 21 213 8.0 14.5 0.00 0.00 0.00 46 1011.5
20260507033306 21 229 6.4 16.1 0.00 0.00 0.00 46 1011.5
20260507032802 21 194 4.8 17.7 0.00 0.00 0.00 46 1011.2
20260507032258 21 203 8.0 14.5 0.00 0.00 0.00 44 1011.2
20260507031755 21 255 6.4 11.3 0.00 0.00 0.00 46 1011.1
20260507031252 22 267 1.6 14.5 0.00 0.00 0.00 44 1011.2
20260507030749 21 258 4.8 11.3 0.00 0.00 0.00 45 1011.0
20260507030247 22 197 3.2 9.7 0.00 0.00 0.00 44 1011.2
20260507025744 22 309 1.6 8.0 0.00 0.00 0.00 43 1011.2
20260507025240 22 301 4.8 12.9 0.00 0.00 0.00 43 1011.0
20260507024739 22 219 4.8 12.9 0.00 0.00 0.00 44 1010.5
20260507024235 22 39 8.0 9.7 0.00 0.00 0.00 44 1011.1
20260507023731 22 344 3.2 8.0 0.00 0.00 0.00 46 1011.3
20260507023228 22 0 4.8 20.9 0.00 0.00 0.00 44 1011.0
20260507022725 23 204 3.2 17.7 0.00 0.00 0.00 42 1010.1
20260507022221 23 218 4.8 17.7 0.00 0.00 0.00 41 1009.6
20260507021718 23 204 6.4 16.1 0.00 0.00 0.00 42 1009.7
20260507021213 23 214 8.0 14.5 0.00 0.00 0.00 42 1009.6
20260507020712 23 245 6.4 12.9 0.00 0.00 0.00 43 1009.7
20260507020207 23 233 6.4 16.1 0.00 0.00 0.00 42 1009.9
20260507015706 23 204 6.4 11.3 0.00 0.00 0.00 43 1009.9
20260507015203 23 207 8.0 11.3 0.00 0.00 0.00 42 1009.7
20260507014659 23 237 4.8 11.3 0.00 0.00 0.00 42 1010.1
20260507014155 24 231 8.0 11.3 0.00 0.00 0.00 42 1009.7
20260507013652 24 225 1.6 12.9 0.00 0.00 0.00 43 1009.9
20260507013149 24 231 4.8 11.3 0.00 0.00 0.00 42 1009.9
20260507012647 24 218 4.8 12.9 0.00 0.00 0.00 42 1009.5
20260507012142 24 237 3.2 11.3 0.00 0.00 0.00 41 1010.0
20260507011641 24 231 6.4 11.3 0.00 0.00 0.00 41 1009.9
20260507011136 25 214 4.8 11.3 0.00 0.00 0.00 44 1009.9
20260507010631 25 223 3.2 12.9 0.00 0.00 0.00 44 1009.9
20260507010128 25 256 4.8 9.7 0.00 0.00 0.00 44 1010.0
20260507005625 25 203 4.8 9.7 0.00 0.00 0.00 42 1009.9
20260507005121 25 244 3.2 11.3 0.00 0.00 0.00 44 1010.0
20260507004618 25 217 3.2 6.4 0.00 0.00 0.00 44 1010.0
20260507004116 25 211 0.0 8.0 0.00 0.00 0.00 43 1009.9
20260507003612 25 234 0.0 11.3 0.00 0.00 0.00 43 1010.2
20260507003107 25 205 4.8 11.3 0.00 0.00 0.00 42 1010.0
20260507002604 25 221 4.8 12.9 0.00 0.00 0.00 41 1010.1
20260507002059 25 240 6.4 9.7 0.00 0.00 0.00 43 1010.0
20260507001556 26 233 4.8 9.7 0.00 0.00 0.00 41 1009.7
20260507001053 26 233 4.8 9.7 0.00 0.00 0.00 43 1010.2
20260507000549 26 238 3.2 12.9 0.00 0.00 0.00 41 1010.2
20260507000045 26 234 4.8 11.3 0.00 0.00 0.00 41 1010.0
20260506235543 25 239 3.2 11.3 0.00 0.00 0.00 42 1009.9
20260506235038 26 240 4.8 8.0 0.00 0.00 0.00 44 1010.1
20260506234536 26 271 3.2 8.0 0.00 0.00 0.00 41 1010.1
20260506234033 27 242 4.8 9.7 0.00 0.00 0.00 41 1010.2
20260506233530 27 250 1.6 6.4 0.00 0.00 0.00 43 1010.2
20260506233027 27 300 4.8 6.4 0.00 0.00 0.00 41 1010.3
20260506232523 27 249 0.0 8.0 0.00 0.00 0.00 40 1010.4
20260506232018 27 333 1.6 8.0 0.00 0.00 0.00 40 1010.4
20260506231516 26 343 3.2 11.3 0.00 0.00 0.00 43 1010.4
20260506231014 26 261 4.8 12.9 0.00 0.00 0.00 43 1010.4